FW8347 Weather Reports


Display with metric or nautical units.
time (UTC)temp
F
wind
direction
speed
MPH
gust
MPH
rain 1hr
in
rain 24hr
in
rain mn
in
humidity
%
barometer
mb
20260906134610 67 88 9.0 17.0 0.01 0.15 0.12 83 1018.7
20260906133104 67 50 11.0 17.0 0.02 0.15 0.12 84 1018.6
20260906131556 67 94 9.0 16.0 0.01 0.14 0.11 83 1018.3
20260906130055 67 78 6.0 15.0 0.01 0.14 0.11 84 1018.5
20260906124550 67 94 7.0 16.0 0.02 0.14 0.11 84 1018.4
20260906123056 67 53 9.0 17.0 0.01 0.13 0.10 84 1018.2
20260906121558 67 24 9.0 19.0 0.01 0.13 0.10 85 1018.1
20260906120059 67 57 10.0 17.0 0.01 0.13 0.10 86 1017.9
20260906114549 66 38 11.0 17.0 0.01 0.12 0.09 86 1017.8
20260906113047 66 92 10.0 18.0 0.01 0.12 0.09 87 1017.6
20260906111556 67 88 9.0 20.0 0.01 0.12 0.09 88 1017.4
20260906104553 67 71 9.0 16.0 0.01 0.11 0.08 86 1017.0
20260906103102 68 90 10.0 16.0 0.01 0.11 0.08 86 1016.8
20260906101547 67 32 6.0 12.0 0.02 0.11 0.08 85 1016.7
20260906100100 68 67 5.0 12.0 0.01 0.10 0.07 85 1016.3
20260906094550 68 25 8.0 13.0 0.01 0.10 0.07 85 1016.3
20260906093102 68 53 6.0 14.0 0.01 0.10 0.07 85 1016.2
20260906091558 68 89 4.0 12.0 0.01 0.09 0.06 85 1015.9
20260906090116 68 33 5.0 12.0 0.01 0.09 0.06 85 1015.7
20260906084612 68 360 7.0 14.0 0.01 0.09 0.06 85 1015.5
20260906083056 68 111 7.0 13.0 0.02 0.09 0.06 86 1015.3
20260906081558 68 31 6.0 12.0 0.01 0.08 0.05 88 1015.3
20260906080122 68 5 5.0 11.0 0.01 0.08 0.05 88 1015.3
20260906074607 68 351 5.0 12.0 0.01 0.08 0.05 88 1015.3
20260906073104 68 30 3.0 8.0 0.00 0.07 0.04 87 1015.2
20260906071550 68 15 5.0 10.0 0.01 0.07 0.04 86 1015.3
20260906070058 69 350 5.0 12.0 0.01 0.07 0.04 85 1015.2
20260906064555 69 27 7.0 10.0 0.01 0.07 0.04 85 1015.3
20260906063052 69 15 5.0 10.0 0.02 0.07 0.04 85 1015.3
20260906061605 69 26 4.0 9.0 0.01 0.06 0.03 85 1015.3
20260906060059 69 30 4.0 9.0 0.02 0.06 0.03 83 1015.3
20260906054555 69 26 4.0 9.0 0.02 0.06 0.03 83 1015.3
20260906053058 69 55 4.0 9.0 0.01 0.05 0.02 82 1015.3
20260906051559 69 63 4.0 11.0 0.02 0.05 0.02 82 1015.4
20260906050106 70 65 5.0 12.0 0.01 0.04 0.01 82 1015.2
20260906044554 70 21 6.0 12.0 0.01 0.04 0.01 82 1015.3
20260906043056 70 5 7.0 13.0 0.02 0.04 0.01 82 1015.2
20260906041604 70 33 6.0 11.0 0.01 0.03 0.00 83 1015.1
20260906040059 70 63 6.0 13.0 0.01 0.03 0.00 84 1015.1
20260906034613 70 25 8.0 16.0 0.01 0.03 0.03 84 1015.1
20260906033050 70 11 6.0 13.0 0.00 0.02 0.02 86 1015.1
20260906031557 69 360 9.0 14.0 0.01 0.02 0.02 87 1015.0
20260906030057 69 5 9.0 13.0 0.01 0.02 0.02 87 1014.9
20260906024558 69 355 4.0 10.0 0.01 0.02 0.02 88 1014.9
20260906023101 69 345 4.0 9.0 0.01 0.02 0.02 88 1014.8
20260906021601 69 342 5.0 9.0 0.00 0.01 0.01 88 1014.8
20260906020100 69 342 5.0 9.0 0.00 0.01 0.01 87 1014.7
20260906014550 69 360 5.0 9.0 0.00 0.01 0.01 87 1014.8
20260906013107 69 348 4.0 8.0 0.00 0.01 0.01 86 1014.6
20260906011559 69 345 2.0 8.0 0.00 0.01 0.01 85 1014.6
20260906010056 69 355 3.0 6.0 0.00 0.01 0.01 85 1014.8
20260906004546 69 355 3.0 8.0 0.00 0.01 0.01 85 1014.5
20260906003056 69 344 2.0 5.0 0.00 0.01 0.01 84 1014.4
20260906001555 70 360 1.0 5.0 0.00 0.01 0.01 82 1014.6
20260906000104 70 346 1.0 6.0 0.00 0.01 0.01 82 1014.5
20260905234620 71 340 1.0 5.0 0.00 0.01 0.01 80 1014.6
20260905233058 72 360 2.0 5.0 0.00 0.01 0.01 79 1014.6
20260905231555 73 0 0.0 3.0 0.00 0.01 0.01 76 1014.5
20260905230105 74 352 1.0 4.0 0.00 0.01 0.01 75 1014.6
20260905224606 76 346 1.0 5.0 0.00 0.01 0.01 73 1014.6
20260905223057 78 355 2.0 5.0 0.00 0.01 0.01 70 1014.5
20260905221553 78 351 2.0 4.0 0.00 0.01 0.01 71 1014.5
20260905220113 78 351 1.0 5.0 0.00 0.01 0.01 71 1014.4
20260905214555 79 0 2.0 6.0 0.00 0.01 0.01 69 1014.4
20260905213054 80 0 1.0 6.0 0.00 0.01 0.01 67 1014.3
20260905211546 82 349 2.0 5.0 0.00 0.01 0.01 66 1014.2
20260905210106 81 9 1.0 5.0 0.00 0.01 0.01 67 1014.0
20260905204557 81 355 2.0 6.0 0.00 0.01 0.01 66 1014.2
20260905203108 81 349 2.0 5.0 0.00 0.01 0.01 66 1014.2
20260905201558 82 16 4.0 9.0 0.00 0.01 0.01 67 1014.2
20260905200105 82 355 3.0 5.0 0.00 0.01 0.01 66 1014.4
20260905194553 82 350 2.0 7.0 0.00 0.01 0.01 68 1014.3
20260905193049 81 342 3.0 8.0 0.00 0.01 0.01 65 1014.4
20260905191558 80 5 2.0 8.0 0.00 0.01 0.01 70 1014.4
20260905190056 79 355 2.0 5.0 0.00 0.01 0.01 73 1014.3
20260905184602 78 26 2.0 6.0 0.00 0.01 0.01 72 1014.3
20260905183057 79 23 3.0 7.0 0.00 0.01 0.01 70 1014.3
20260905181559 79 352 2.0 5.0 0.01 0.01 0.01 69 1014.3
20260905180056 81 360 2.0 5.0 0.01 0.01 0.01 70 1014.3
20260905174554 80 10 2.0 5.0 0.01 0.01 0.01 71 1014.3
20260905173058 80 340 2.0 5.0 0.01 0.01 0.01 69 1014.2
20260905171633 81 19 3.0 6.0 0.00 0.00 0.00 67 1014.3
20260905170104 81 345 3.0 6.0 0.00 0.00 0.00 69 1014.1
20260905164552 81 338 2.0 5.0 0.00 0.00 0.00 67 1014.1
20260905163100 81 335 1.0 4.0 0.00 0.00 0.00 67 1014.4
20260905161558 80 349 2.0 5.0 0.00 0.00 0.00 69 1014.2
20260905160107 79 355 3.0 5.0 0.00 0.00 0.00 68 1014.4
20260905154613 79 355 3.0 6.0 0.00 0.00 0.00 70 1014.5
20260905153050 78 360 3.0 6.0 0.00 0.00 0.00 73 1014.4
20260905151558 77 40 2.0 7.0 0.00 0.00 0.00 75 1014.3
20260905150103 76 342 2.0 6.0 0.00 0.00 0.00 74 1014.3
20260905144550 75 348 2.0 7.0 0.00 0.00 0.00 77 1014.3
20260905143052 74 5 5.0 9.0 0.00 0.00 0.00 78 1014.3
20260905141556 73 20 4.0 8.0 0.00 0.00 0.00 80 1014.2
20260905140057 72 19 5.0 12.0 0.00 0.00 0.00 80 1014.1